DW5679 Weather Reports


Display with metric or nautical units.
time (UTC)temp
F
wind
direction
speed
MPH
gust
MPH
rain 1hr
in
rain 24hr
in
rain mn
in
humidity
%
barometer
mb
20260903200055 92 58 0.0 2.0 0.00 0.00 0.00 53 1013.9
20260903200020 93 225 0.0 2.0 0.00 0.00 0.00 50 1014.2
20260903194552 92 349 0.0 1.0 0.00 0.00 0.00 53 1014.1
20260903194514 92 19 0.0 1.0 0.00 0.00 0.00 51 1014.4
20260903193051 93 37 0.0 2.0 0.00 0.00 0.00 54 1014.3
20260903193014 93 95 0.0 2.0 0.00 0.00 0.00 54 1014.5
20260903191549 93 60 0.0 2.0 0.00 0.00 0.00 54 1014.3
20260903191510 93 90 0.0 2.0 0.00 0.00 0.00 53 1014.7
20260903190048 93 61 0.0 2.0 0.00 0.00 0.00 52 1014.6
20260903190031 93 91 0.0 2.0 0.00 0.00 0.00 52 1014.8
20260903184544 93 172 0.0 1.0 0.00 0.00 0.00 50 1014.7
20260903184526 94 86 0.0 1.0 0.00 0.00 0.00 50 1015.0
20260903183040 92 4 0.0 1.0 0.00 0.00 0.00 53 1014.7
20260903183024 93 108 0.0 1.0 0.00 0.00 0.00 54 1015.0
20260903181537 92 17 0.0 1.0 0.00 0.00 0.00 54 1014.8
20260903181520 92 48 0.0 1.0 0.00 0.00 0.00 55 1015.2
20260903180051 91 51 0.0 1.0 0.00 0.00 0.00 54 1015.0
20260903180020 92 81 0.0 1.0 0.00 0.00 0.00 54 1015.3
20260903174532 90 70 0.0 1.0 0.00 0.00 0.00 56 1015.3
20260903174514 91 100 0.0 1.0 0.00 0.00 0.00 56 1015.7
20260903173146 89 41 0.0 1.0 0.00 0.00 0.00 59 1015.5
20260903173030 90 71 0.0 1.0 0.00 0.00 0.00 59 1015.8
20260903171549 89 95 0.0 1.0 0.00 0.00 0.00 61 1015.7
20260903171528 89 126 0.0 1.0 0.00 0.00 0.00 61 1015.9
20260903170135 88 156 0.0 1.0 0.00 0.00 0.00 62 1015.8
20260903170023 89 186 0.0 1.0 0.00 0.00 0.00 62 1016.0
20260903164537 87 103 0.0 2.0 0.00 0.00 0.00 64 1016.0
20260903164521 88 127 0.0 2.0 0.00 0.00 0.00 63 1016.2
20260903163039 86 349 0.0 1.0 0.00 0.00 0.00 64 1016.1
20260903163019 87 20 0.0 2.0 0.00 0.00 0.00 65 1016.4
20260903161525 85 51 0.0 1.0 0.00 0.00 0.00 69 1016.2
20260903161517 86 109 0.0 1.0 0.00 0.00 0.00 68 1016.5
20260903160033 84 117 0.0 1.0 0.00 0.00 0.00 72 1016.6
20260903160025 84 89 0.0 1.0 0.00 0.00 0.00 72 1016.3
20260903154542 83 126 0.0 2.0 0.00 0.00 0.00 73 1016.6
20260903154520 83 96 0.0 2.0 0.00 0.00 0.00 74 1016.3
20260903153103 83 110 0.0 3.0 0.00 0.00 0.00 76 1016.4
20260903153026 83 139 0.0 3.0 0.00 0.00 0.00 75 1016.7
20260903151616 82 93 0.0 1.0 0.00 0.00 0.00 78 1016.4
20260903151525 83 123 0.0 1.0 0.00 0.00 0.00 77 1016.7
20260903150024 82 97 0.0 0.0 0.00 0.00 0.00 79 1016.7
20260903150010 81 67 0.0 0.0 0.00 0.00 0.00 80 1016.4
20260903144537 80 67 0.0 1.0 0.00 0.00 0.00 83 1016.5
20260903144532 80 97 0.0 1.0 0.00 0.00 0.00 82 1016.8
20260903143059 79 86 0.0 0.0 0.00 0.00 0.00 84 1016.6
20260903143038 79 116 0.0 0.0 0.00 0.00 0.00 84 1016.9
20260903141601 78 108 0.0 1.0 0.00 0.00 0.00 85 1016.7
20260903141538 78 139 0.0 1.0 0.00 0.00 0.00 85 1017.1
20260903140058 77 98 0.0 0.0 0.00 0.00 0.00 87 1016.8
20260903140031 78 128 0.0 1.0 0.00 0.00 0.00 87 1017.2
20260903134556 76 32 0.0 0.0 0.00 0.00 0.00 89 1016.9
20260903134528 77 62 0.0 0.0 0.00 0.00 0.00 89 1017.2
20260903133029 76 32 0.0 0.0 0.00 0.00 0.00 91 1016.9
20260903133024 76 62 0.0 0.0 0.00 0.00 0.00 90 1017.2
20260903131539 75 32 0.0 0.0 0.00 0.00 0.00 91 1016.8
20260903131535 75 62 0.0 0.0 0.00 0.00 0.00 90 1017.1
20260903130032 74 62 0.0 0.0 0.00 0.00 0.00 92 1017.2
20260903130026 74 32 0.0 0.0 0.00 0.00 0.00 92 1016.7
20260903124534 74 62 0.0 0.0 0.00 0.00 0.00 91 1017.1
20260903124519 73 32 0.0 0.0 0.00 0.00 0.00 92 1016.7
20260903123032 73 62 0.0 0.0 0.00 0.00 0.00 91 1017.0
20260903123020 73 32 0.0 0.0 0.00 0.00 0.00 91 1016.6
20260903121533 73 62 0.0 0.0 0.00 0.00 0.00 92 1016.9
20260903121520 73 32 0.0 0.0 0.00 0.00 0.00 93 1016.5
20260903120025 73 62 0.0 0.0 0.00 0.00 0.00 91 1016.8
20260903120015 73 32 0.0 0.0 0.00 0.00 0.00 92 1016.5
20260903114527 73 62 0.0 0.0 0.00 0.00 0.00 91 1016.6
20260903114512 73 32 0.0 0.0 0.00 0.00 0.00 92 1016.2
20260903113024 73 32 0.0 0.0 0.00 0.00 0.00 92 1016.0
20260903113022 74 62 0.0 0.0 0.00 0.00 0.00 92 1016.4
20260903111516 74 62 0.0 0.0 0.00 0.00 0.00 92 1016.3
20260903111510 73 32 0.0 0.0 0.00 0.00 0.00 93 1016.0
20260903110014 74 29 0.0 1.0 0.00 0.00 0.00 92 1015.8
20260903110012 74 59 0.0 1.0 0.00 0.00 0.00 92 1016.2
20260903104530 74 59 0.0 1.0 0.00 0.00 0.00 93 1016.1
20260903104525 73 29 0.0 1.0 0.00 0.00 0.00 94 1015.8
20260903103037 73 29 0.0 0.0 0.00 0.00 0.00 92 1015.6
20260903103028 74 59 0.0 0.0 0.00 0.00 0.00 92 1016.0
20260903101527 74 59 0.0 0.0 0.00 0.00 0.00 91 1015.9
20260903101519 73 29 0.0 0.0 0.00 0.00 0.00 91 1015.4
20260903100024 74 59 0.0 1.0 0.00 0.00 0.00 91 1015.8
20260903100016 74 29 0.0 1.0 0.00 0.00 0.00 91 1015.4
20260903094533 74 89 0.0 0.0 0.00 0.00 0.00 90 1015.2
20260903094520 74 119 0.0 0.0 0.00 0.00 0.00 90 1015.7
20260903093014 75 119 0.0 0.0 0.00 0.00 0.00 90 1015.5
20260903091536 75 119 0.0 0.0 0.00 0.00 0.00 91 1015.4
20260903091512 75 89 0.0 0.0 0.00 0.00 0.00 91 1015.1
20260903090033 75 119 0.0 0.0 0.00 0.00 0.00 90 1015.3
20260903090011 75 89 0.0 0.0 0.00 0.00 0.00 91 1015.0
20260903084541 75 119 0.0 0.0 0.00 0.00 0.00 90 1015.6
20260903084509 75 89 0.0 0.0 0.00 0.00 0.00 90 1015.0
20260903083022 76 119 0.0 0.0 0.00 0.00 0.00 89 1015.4
20260903083009 75 89 0.0 0.0 0.00 0.00 0.00 90 1014.8
20260903081518 76 119 0.0 0.0 0.00 0.00 0.00 88 1015.4
20260903081507 75 89 0.0 0.0 0.00 0.00 0.00 88 1014.9
20260903080014 76 119 0.0 0.0 0.00 0.00 0.00 86 1015.3
20260903080006 76 89 0.0 0.0 0.00 0.00 0.00 87 1014.9
20260903074531 77 119 0.0 0.0 0.00 0.00 0.00 85 1015.3
20260903074504 76 89 0.0 0.0 0.00 0.00 0.00 86 1014.8
20260903073035 77 119 0.0 0.0 0.00 0.00 0.00 85 1015.2
20260903073002 76 89 0.0 0.0 0.00 0.00 0.00 85 1014.9
20260903071531 77 119 0.0 0.0 0.00 0.00 0.00 85 1015.3
20260903071502 77 89 0.0 0.0 0.00 0.00 0.00 85 1014.9
20260903070104 77 89 0.0 0.0 0.00 0.00 0.00 85 1015.0
20260903070028 77 119 0.0 0.0 0.00 0.00 0.00 84 1015.3
20260903064603 77 89 0.0 0.0 0.00 0.00 0.00 84 1015.0
20260903064524 78 119 0.0 0.0 0.00 0.00 0.00 84 1015.5
20260903063058 77 89 0.0 0.0 0.00 0.00 0.00 84 1015.1
20260903063017 78 119 0.0 0.0 0.00 0.00 0.00 83 1015.5
20260903061600 78 89 0.0 0.0 0.00 0.00 0.00 83 1015.1
20260903061533 78 119 0.0 0.0 0.00 0.00 0.00 82 1015.4
20260903060054 78 89 0.0 0.0 0.00 0.00 0.00 82 1015.1
20260903060031 78 119 0.0 0.0 0.00 0.00 0.00 81 1015.4
20260903054553 78 89 0.0 0.0 0.00 0.00 0.00 81 1015.1
20260903054530 79 119 0.0 0.0 0.00 0.00 0.00 81 1015.6
20260903053107 79 89 0.0 0.0 0.00 0.00 0.00 81 1015.0
20260903053030 79 119 0.0 0.0 0.00 0.00 0.00 80 1015.4
20260903051552 79 89 0.0 0.0 0.00 0.00 0.00 81 1015.0
20260903051528 80 119 0.0 0.0 0.00 0.00 0.00 81 1015.4
20260903050044 80 89 0.0 0.0 0.00 0.00 0.00 81 1014.9
20260903050038 80 119 0.0 0.0 0.00 0.00 0.00 81 1015.4
20260903044552 80 89 0.0 0.0 0.00 0.00 0.00 79 1015.0
20260903044531 81 119 0.0 0.0 0.00 0.00 0.00 78 1015.3
20260903043043 81 89 0.0 0.0 0.00 0.00 0.00 76 1015.0
20260903043032 81 119 0.0 0.0 0.00 0.00 0.00 75 1015.4
20260903041543 81 89 0.0 0.0 0.00 0.00 0.00 75 1014.9
20260903040042 81 89 0.0 0.0 0.00 0.00 0.00 74 1015.0
20260903040030 82 119 0.0 0.0 0.00 0.00 0.00 73 1015.3
20260903034542 81 89 0.0 0.0 0.00 0.00 0.00 74 1015.2
20260903034534 82 119 0.0 0.0 0.00 0.00 0.00 73 1015.5
20260903033041 82 89 0.0 0.0 0.00 0.00 0.00 72 1015.1
20260903033023 82 119 0.0 0.0 0.00 0.00 0.00 72 1015.4
20260903031540 82 89 0.0 0.0 0.00 0.00 0.00 73 1015.1
20260903031538 82 119 0.0 0.0 0.00 0.00 0.00 72 1015.4
20260903030043 82 89 0.0 0.0 0.00 0.00 0.00 71 1015.0
20260903030013 83 119 0.0 0.0 0.00 0.00 0.00 71 1015.4
20260903024544 83 89 0.0 0.0 0.00 0.00 0.00 72 1014.9
20260903024512 83 119 0.0 0.0 0.00 0.00 0.00 71 1015.3
20260903023039 83 89 0.0 0.0 0.00 0.00 0.00 71 1014.7
20260903023014 83 119 0.0 0.0 0.00 0.00 0.00 71 1015.1
20260903021540 83 89 0.0 0.0 0.00 0.00 0.00 70 1014.7
20260903021530 84 119 0.0 0.0 0.00 0.00 0.00 70 1015.0
20260903020053 84 119 0.0 0.0 0.00 0.00 0.00 69 1014.9
20260903020038 84 89 0.0 0.0 0.00 0.00 0.00 69 1014.4
20260903014543 84 89 0.0 0.0 0.00 0.00 0.00 69 1014.4
20260903014524 85 119 0.0 0.0 0.00 0.00 0.00 68 1014.8
20260903013038 85 89 0.0 0.0 0.00 0.00 0.00 67 1014.2
20260903013020 85 119 0.0 0.0 0.00 0.00 0.00 66 1014.5
20260903011542 86 89 0.0 0.0 0.00 0.00 0.00 64 1014.1
20260903011516 86 119 0.0 0.0 0.00 0.00 0.00 64 1014.3
20260903010037 87 89 0.0 0.0 0.00 0.00 0.00 61 1014.0
20260903010012 88 119 0.0 0.0 0.00 0.00 0.00 61 1014.3
20260903004536 88 89 0.0 0.0 0.00 0.00 0.00 61 1013.9
20260903004532 89 119 0.0 0.0 0.00 0.00 0.00 59 1014.2
20260903003036 90 89 0.0 0.0 0.00 0.00 0.00 57 1013.8
20260903003028 91 119 0.0 0.0 0.00 0.00 0.00 56 1014.2
20260903001609 91 89 0.0 0.0 0.00 0.00 0.00 54 1013.7
20260903001532 92 119 0.0 0.0 0.00 0.00 0.00 53 1014.0
20260903000024 92 118 0.0 0.0 0.00 0.00 0.00 52 1013.9
20260902234542 92 89 0.0 1.0 0.00 0.00 0.00 51 1013.7
20260902234517 93 119 0.0 1.0 0.00 0.00 0.00 50 1014.0
20260902233029 93 55 0.0 0.0 0.00 0.00 0.00 51 1013.6
20260902233013 94 85 0.0 0.0 0.00 0.00 0.00 50 1013.9
20260902231546 93 55 0.0 0.0 0.00 0.00 0.00 50 1013.6
20260902231534 94 85 0.0 0.0 0.00 0.00 0.00 49 1013.9
20260902230041 94 237 0.0 1.0 0.00 0.00 0.00 49 1013.6
20260902230030 94 33 0.0 1.0 0.00 0.00 0.00 49 1014.0
20260902224529 94 159 0.0 1.0 0.00 0.00 0.00 50 1014.2
20260902224525 93 129 0.0 1.0 0.00 0.00 0.00 50 1013.8
20260902223024 94 249 0.0 1.0 0.00 0.00 0.00 49 1014.2
20260902221536 94 256 0.0 1.0 0.00 0.00 0.00 49 1014.3
20260902221521 94 226 0.0 1.0 0.00 0.00 0.00 50 1014.0
20260902220032 95 109 0.0 0.0 0.00 0.00 0.00 51 1014.4
20260902220024 94 79 0.0 0.0 0.00 0.00 0.00 51 1014.0
20260902214532 95 98 0.0 1.0 0.00 0.00 0.00 48 1014.5
20260902214518 94 67 0.0 1.0 0.00 0.00 0.00 50 1014.2
20260902213034 94 105 0.0 1.0 0.00 0.00 0.00 49 1014.6
20260902213015 94 75 0.0 1.0 0.00 0.00 0.00 49 1014.4
20260902211614 94 58 0.0 1.0 0.00 0.00 0.00 51 1014.8
20260902211527 94 80 0.0 1.0 0.00 0.00 0.00 50 1015.1
20260902210030 94 109 0.0 1.0 0.00 0.00 0.00 50 1015.1
20260902210011 94 79 0.0 1.0 0.00 0.00 0.00 50 1014.8
20260902204635 93 314 1.0 5.0 0.00 0.00 0.00 50 1014.9
20260902204524 94 2 0.0 4.0 0.00 0.00 0.00 50 1015.2
20260902203031 93 94 0.0 1.0 0.00 0.00 0.00 52 1015.4
20260902203010 93 52 0.0 1.0 0.00 0.00 0.00 53 1015.1
20260902201540 93 121 0.0 2.0 0.00 0.00 0.00 54 1015.5
20260902201506 93 91 0.0 2.0 0.00 0.00 0.00 56 1015.2